Flag for U.S.A. Weather past 2 weeks in Hollywood, Florida, U.S.A.

Now
81 °F

Passing clouds.


Feels Like: 86 °F
Forecast: 79 / 87 °F
Wind: 3 mph from Southeast

Location: Fort Lauderdale / Hollywood International Airport

Current Time: Jul 25, 2014 at 3:38:54 AM

Latest Report: Jul 25, 2014 at 2:53 AM


Visibility: 10 mi

Pressure: 30.04 "Hg

Humidity: 79%

Dew point: 74 °F

Location of HollywoodLocation

Historic Weather in Hollywood — Graph

°F

Hollywood temperature yesterday

Maximum temperature yesterday: 90 °F (at 12:53 PM)
Minimum temperature yesterday: 79 °F (at 6:53 AM)
Average temperature yesterday: 85 °F

Past Weeks' High & Low Weather Summary

 TemperatureHumidityPressure
High94 °F (Jul 18, 2:53 PM)97% (Jul 10, 7:53 PM)30.14 "Hg (Jul 10, 7:53 PM)
Low75 °F (Jul 17, 12:53 PM)46% (Jul 18, 2:53 PM)29.96 "Hg (Jul 16, 5:53 PM)
Average83 °F75%30.04 "Hg
* Reported Jul 10 1:53 AM — Jul 25 1:53 AM, Hollywood, Weather by CustomWeather, © 2014

Note: Actual official high and low records may vary slightly from our data, if they occured in-between our weather recording intervals... More about our weather records

Advertising

Hollywood weather history for previous 24 hours

 ConditionsComfort  
Time TempWeatherWind HumidityBarometerVisibility
1:53 AM
Jul 25
83 °FPassing clouds.8 mph74%30.04 "Hg10 mi
12:53 AM83 °FPassing clouds.9 mph74%30.04 "Hg10 mi
11:53 PM
Jul 24
85 °FPassing clouds.6 mph68%30.05 "Hg10 mi
10:53 PM84 °FClear.3 mph72%30.05 "Hg10 mi
9:53 PM85 °FClear.No wind70%30.03 "Hg10 mi
8:53 PM85 °FPassing clouds.7 mph70%30.03 "Hg10 mi
7:53 PM86 °FScattered clouds.3 mph67%30.02 "Hg10 mi
6:53 PM87 °FScattered clouds.5 mph65%30.01 "Hg10 mi
5:53 PM88 °FScattered clouds.7 mph63%29.99 "Hg10 mi
4:53 PM88 °FPassing clouds.7 mph63%30.01 "Hg10 mi
3:53 PM89 °FScattered clouds.No wind59%30.02 "Hg10 mi
2:53 PM87 °FScattered clouds.7 mph65%30.05 "Hg10 mi
1:53 PM90 °FPassing clouds.9 mph57%30.05 "Hg10 mi
12:53 PM90 °FPassing clouds.12 mph59%30.05 "Hg10 mi
11:53 AM89 °FPassing clouds.N/A63%30.06 "Hg10 mi
10:53 AM89 °FScattered clouds.14 mph61%30.06 "Hg10 mi
9:53 AM87 °FBroken clouds.6 mph67%30.05 "Hg10 mi
8:53 AM85 °FPartly sunny.6 mph70%30.05 "Hg10 mi
7:53 AM83 °FPartly sunny.3 mph70%30.03 "Hg10 mi
6:53 AM79 °FLight rain. Partly cloudy.9 mph82%30.04 "Hg6 mi
5:53 AM80 °FPartly cloudy.No wind87%30.02 "Hg10 mi
4:53 AM80 °FPassing clouds.No wind87%30.01 "Hg10 mi
3:53 AM80 °FPassing clouds.No wind85%30.01 "Hg10 mi
Weather by CustomWeather, © 2014

See weather overviewHow to use our weather pages